Starlink 4415

operational
NORAD ID: 53465 Int'l Des: 2022-099 Owner: SPXS Country: US Constellation: starlink
LEOCIRCULARRETROGRADESSO

About Starlink 4415

Description loading...

Live Position

Loading 3D Globe...

Upcoming Passes

Altitude History

Altitude vs Time

uPlot chart will show altitude changes over time

Two-Line Element Set

1 53465U 22099A 25351.34694061 .00000676 00000-0 51067-4 0 9996
2 53465 97.6031 110.0530 0000959 98.1754 261.9581 15.05647890183647
Epoch: Dec 17, 2025 • Age: 11 hours

Current Status

Altitude 566.5 km
Velocity 7.58 km/s
Sub-Earth Point -42.83°S, 101.4°E
Launch Date Aug 12, 2022
Age 3.3 years
Type internet

Technical Details

Classification Payload
Mass 300.00 kg
Dry Mass 275.00 kg
Total Mass 300.00 kg
Length 0.20 m
Diameter 2.80 m
Span 9.00 m
Shape Box + pan
Manufacturer SPXS
Bus Type Starlink
Phase Status In Orbit
Owner/State SPXS/US

Large Constellations

Loading constellations...